7 * 24
多渠道服务支持
STARLINK-37147(NORAD编号68295)是SpaceX星链(Starlink)星座中的一颗互联网通信卫星,属于星链项目第二代组网卫星,旨在为全球提供高速低延迟宽带互联网服务。 该卫星运行在近地轨道,依托星链网络的空间激光链路技术,可实现全球覆盖,支持偏远地区联网、应急通信等场景。目前公开轨道数据显示其状态正常,延续了星链卫星标准化设计,具备自动离轨再入大气层能力,符合空间碎片减缓要求。
美国
(US)
| 数据来源 | 国际轨道数据 |
| 星历时间: | 2026-09-12T09:47:36+0800 8小时前 查看轨道信息 |
| 半长轴: | 6843.684km |
| 偏心率: | 0.0001238 |
| 轨道倾角: | 97.287° |
| 近地点辐角 | 93.266° |
| 升交点赤经 | 20.610° |
| 平近点角 | 266.872° |
| 近地点: | 464.699km |
| 远地点: | 466.395km |
| 周期: | 93.906分钟 |
| 每日圈数: | 15.33444 |